Regional Weather Roundup
Issued by NWS

Home | Current Version | Previous Version | Text Only | Print | Product List | Glossary Off
Versions: 1 2 3 4 5 6 7 8 9 10 11 12 13 14 15 16 17 18 19 20 21 22 23 24 25 26 27 28 29 30 31 32 33 34 35 36 37 38 39 40 41 42 43 44 45 46 47 48 49 50

000
ASUS43 KFSD 222110
RWRSD

WEATHER ROUNDUP FOR SOUTH DAKOTA
NATIONAL WEATHER SERVICE SIOUX FALLS SD
400 PM CDT FRI JUL 22 2016

NOTE: "FAIR" INDICATES FEW OR NO CLOUDS BELOW 12,000 FEET WITH NO
SIGNIFICANT WEATHER AND/OR OBSTRUCTIONS TO VISIBILITY.


SDZ001>005-009-010-012>017-222200-
NORTHWEST AND NORTH CENTRAL SOUTH DAKOTA

CITY           SKY/WX    TMP DP  RH WIND       PRES   REMARKS
BUFFALO          N/A    101  55  21 SE10      29.86F HX  99
FAITH            N/A    101  52  19 S23G29    29.93F HX  98
MOBRIDGE       CLOUDY    88  59  37 E20G28    29.95F
$$

SDZ012>016-024>037-041>051-057-063-072>074-222200-
SOUTHWEST AND SOUTH CENTRAL SOUTH DAKOTA

CITY           SKY/WX    TMP DP  RH WIND       PRES   REMARKS
RAPID CTY ARPT SUNNY     95  51  22 SE16G26   29.98F
PIERRE         SUNNY    100  63  29 SE10      29.92F HX 102
CUSTER         CLOUDY    83  47  28 S5        30.20F
ELLSWORTH AFB  MOSUNNY   98  53  21 S23       29.96F HX  95
PHILIP         SUNNY    103  59  23 SE15G22   29.91F HX 103
PINE RIDGE     CLOUDY    96  49  20 SE20G31   30.01S
WINNER         FAIR      97  69  40 S7        29.96F HX 103
$$

SDZ004>011-016>023-039-040-222200-
NORTHEAST SOUTH DAKOTA

CITY           SKY/WX    TMP DP  RH WIND       PRES   REMARKS
ABERDEEN       CLOUDY    77  70  79 S16       29.95F
WATERTOWN      SUNNY     94  70  45 NE9       30.04S HX 100
BROOKINGS      MOSUNNY   89  77  67 E13       30.00F HX 101
SISSETON         N/A     85  68  56 CALM      30.02F
$$

SDZ017-020-022-023-036>040-048>070-222200-
SOUTHEAST SOUTH DAKOTA

CITY           SKY/WX    TMP DP  RH WIND       PRES   REMARKS
SIOUX FALLS    PTSUNNY   91  78  65 E13       29.96F HX 106
HURON          SUNNY     98  71  41 NE10      29.96S HX 106
CHAMBERLAIN    SUNNY     98  78  52 E3        29.95F HX 114
MITCHELL       MOSUNNY   94  78  60 E14       29.94F HX 110
YANKTON        PTSUNNY   93  81  66 NE12      29.90F HX 113
$$

ABBREVIATIONS USED IN REMARKS
   TC - TEMPERATURE IN CELSIUS
  WCI - WIND CHILL INDEX
   HX - HEAT INDEX
  VSB - VISIBILITY





USA.gov is the U.S. government's official web portal to all federal, state and local government web resources and services.